User: anonymous   Login
Location: Pian di Sc�
(43.6333°N, 11.5500°E)
Time: 10:23:38
(UTC+00:00)
Language:

Cosmos 1953 - Orbit

View from above orbital plane
View from above orbital plane
View from above satellite
View from above satellite

Ground track
Ground track

The orbit data is extracted from the following two-line orbital elements,

1 19210U 88050A   20304.92307070 +.00000250 +00000-0 +15111-4 0  9991
2 19210 082.5131 278.3147 0014081 024.6477 335.5421 15.06048273742058
Epoch (UTC): 30 October 2020 22:09:13
Eccentricity: 0.0014081
inclination: 82.5131°
perigee height: 538 km
apogee height: 558 km
right ascension of ascending node: 278.3147°
argument of perigee: 24.6477°
revolutions per day: 15.06048273
mean anomaly at epoch: 335.5421°
orbit number at epoch: 74205

The dashed part of the orbit path shows where the satellite is in the earth's shadow,  

DLR